{"data":{"norad_id":59843,"intl_designator":"2024-097J","name":"STARLINK-31857","alt_names":[],"object_type":"PAYLOAD","status":"ACTIVE","operator":null,"country":"US","launch_date":"2024-05-23","launch_site_code":"AFETR","launch_vehicle":null,"mission":null,"orbit_class":"UNKNOWN","rcs_meters":null,"size_class":null,"mass_kg":null,"dimensions":null,"purposes":["comms"],"wikipedia_slug":null,"has_3d_model":false,"image_url":null,"decayed_at":null,"tle_current":{"epoch":"2026-05-25T05:01:43.263264Z","epoch_age_seconds":67674,"freshness":"FRESH","line1":"1 59843U 24097J   26145.20952851 -.00002080  00000+0 -66100-4 0  9999","line2":"2 59843  43.0019 201.8582 0001938 275.2822  84.7808 15.27563262113620","mean_motion":15.27563262,"eccentricity":0.0001938,"inclination_deg":43.0019,"raan_deg":201.8582,"arg_perigee_deg":275.2822,"mean_anomaly_deg":84.7808,"bstar":-6.61e-5,"rev_number":11362,"period_min":94.267781624615,"perigee_km":481.76950851208,"apogee_km":484.42892366944,"semimajor_km":6861.2362160908,"source":"CELESTRAK","updated_at":"2026-05-25T13:38:19.086710Z"}}}